Weather History for KUIL - February, 2014

Change the Weather History Date:

Friday, February 14, 2014

  Actual Average Record
Temperature  
Mean Temperature 49 °F 42 °F  
Max Temperature 53 °F 49 °F 65 °F (1996)
Min Temperature 44 °F 35 °F 20 °F (1990)
Degree Days  
Heating Degree Days 16 23  
Month to date heating degree days 347 322  
Since 1 July heating degree days 2905 3527  
Cooling Degree Days 0 0  
Month to date cooling degree days 0 0  
Year to date cooling degree days 0 0  
Moisture  
Dew Point 44 °F    
Average Humidity 83    
Maximum Humidity 89    
Minimum Humidity 77    
Precipitation  
Precipitation 0.22 in 0.36 in 2.86 in (1988)
Month to date precipitation 3.89 5.34  
Year to date precipitation 15.82 19.95  
Sea Level Pressure  
Sea Level Pressure 29.71 in    
Wind  
Wind Speed 8 mph (SSW)    
Max Wind Speed 21 mph    
Max Gust Speed 40 mph    
Visibility 4 miles    
Events Rain    
T = Trace of Precipitation, MM = Missing Value Source: NWS Daily Summary

Daily Weather History Graph

Daily Weather History Graph

Search for Another Location

Airport or City:

Trip Planner

Search our weather history database for the weather conditions in past years. The results will help you decide how hot, cold, wet, or windy it might be!

Date:

Astronomy

Feb. 14, 2014 Rise Set
Actual Time 7:25 AM PST 5:39 PM PST
Civil Twilight 6:53 AM PST 6:11 PM PST
Nautical Twilight 6:17 AM PST 6:47 PM PST
Astronomical Twilight 5:41 AM PST 7:23 PM PST
Moon 5:53 PM PST (2/14) 6:53 AM PST (2/14)
Length of Visible Light 11h 17m
Length of Day
10h 13m
Full, 100% of the Moon is Illuminated
Feb 14
Full
Feb 14
Full
Feb 22
Last Quarter
Mar 1
New
Mar 8
First Quarter

Hourly Weather History & Observations

Time (PST) Temp. Windchill Dew Point Humidity Pressure Visibility Wind Dir Wind Speed Gust Speed Precip Events Conditions
12:17 AM 46.9 °F - 41.0 °F 80% 29.61 in 2.5 mi SE 11.5 mph 24.2 mph 0.05 in Rain Rain
12:36 AM 46.9 °F - 41.0 °F 80% 29.58 in 3.0 mi ESE 10.4 mph 21.9 mph 0.08 in Rain Light Rain
12:53 AM 46.0 °F 40.6 °F 41.0 °F 83% 29.54 in 3.0 mi East 11.5 mph - 0.09 in Rain Light Rain
1:35 AM 45.0 °F 40.6 °F 41.0 °F 86% 29.48 in 4.0 mi ESE 8.1 mph - 0.02 in Rain Light Rain
1:45 AM 46.0 °F 42.5 °F 41.0 °F 83% 29.48 in 1.8 mi Variable 6.9 mph - 0.04 in Rain Rain
1:53 AM 46.0 °F 43.9 °F 42.1 °F 86% 29.49 in 2.0 mi Variable 4.6 mph - 0.07 in Rain Rain
2:11 AM 48.9 °F - 44.1 °F 83% 29.48 in 4.0 mi South 19.6 mph 40.3 mph 0.02 in Rain Light Rain
2:50 AM 50.0 °F - 46.4 °F 87% 29.49 in 2.5 mi South 15.0 mph 27.6 mph 0.04 in Rain Light Rain
2:53 AM 50.0 °F - 46.0 °F 86% 29.49 in 2.5 mi South 13.8 mph 24.2 mph 0.04 in Rain Light Rain
2:57 AM 50.0 °F - 46.0 °F 86% 29.49 in 3.0 mi South 16.1 mph 25.3 mph 0.00 in Rain Light Rain
3:04 AM 50.0 °F - 46.0 °F 86% 29.50 in 2.5 mi SSW 13.8 mph 26.5 mph 0.00 in Rain Light Rain
3:12 AM 50.0 °F - 46.9 °F 89% 29.50 in 4.0 mi South 15.0 mph 24.2 mph 0.01 in Rain Light Rain
3:53 AM 51.1 °F - 48.0 °F 89% 29.51 in 4.0 mi SSW 13.8 mph 23.0 mph 0.01 in   Overcast
4:53 AM 51.1 °F - 46.9 °F 86% 29.54 in 4.0 mi SSW 13.8 mph 24.2 mph N/A   Overcast
5:53 AM 50.0 °F - 44.1 °F 80% 29.56 in 5.0 mi SSW 13.8 mph 24.2 mph N/A   Haze
6:38 AM 50.0 °F - 44.1 °F 80% 29.58 in 5.0 mi SW 13.8 mph 23.0 mph N/A   Haze
6:53 AM 48.9 °F - 44.1 °F 83% 29.60 in 5.0 mi SSW 10.4 mph 18.4 mph N/A   Haze
7:51 AM 48.2 °F - 44.6 °F 87% 29.63 in 4.0 mi SSW 8.1 mph - N/A   Haze
7:53 AM 48.9 °F - 44.1 °F 83% 29.63 in 4.0 mi SSW 9.2 mph - N/A   Haze
8:53 AM 50.0 °F - 45.0 °F 83% 29.66 in 3.0 mi SSW 6.9 mph - N/A   Haze
9:15 AM 50.0 °F - 45.0 °F 83% 29.67 in 3.0 mi SSW 10.4 mph - N/A   Haze
9:24 AM 50.0 °F - 45.0 °F 83% 29.68 in 3.0 mi SSW 10.4 mph - N/A   Haze
9:40 AM 50.0 °F - 45.0 °F 83% 29.70 in 3.0 mi SSW 9.2 mph - N/A   Haze
9:53 AM 51.1 °F - 45.0 °F 80% 29.71 in 3.0 mi SW 9.2 mph - N/A   Haze
10:35 AM 51.1 °F - 45.0 °F 80% 29.72 in 3.0 mi SW 10.4 mph - N/A   Haze
10:53 AM 51.1 °F - 45.0 °F 80% 29.74 in 3.0 mi SW 9.2 mph 17.3 mph N/A   Haze
11:02 AM 52.0 °F - 45.0 °F 77% 29.75 in 3.0 mi SW 11.5 mph 19.6 mph N/A   Haze
11:09 AM 51.1 °F - 45.0 °F 80% 29.75 in 4.0 mi SW 11.5 mph - N/A   Haze
11:22 AM 52.0 °F - 44.1 °F 74% 29.77 in 4.0 mi SW 15.0 mph - N/A   Haze
11:53 AM 51.1 °F - 44.1 °F 77% 29.78 in 4.0 mi SW 13.8 mph 20.7 mph N/A   Haze
12:53 PM 51.1 °F - 45.0 °F 80% 29.82 in 4.0 mi SSW 15.0 mph 20.7 mph N/A   Haze
12:57 PM 50.0 °F - 45.0 °F 83% 29.82 in 1.8 mi WSW 13.8 mph 23.0 mph 0.00 in Rain Light Rain
1:05 PM 48.9 °F - 45.0 °F 86% 29.82 in 1.0 mi WSW 13.8 mph 24.2 mph 0.01 in Rain Light Rain
1:17 PM 48.9 °F - 45.0 °F 86% 29.83 in 2.0 mi WSW 9.2 mph - 0.01 in Rain Light Rain
1:27 PM 50.0 °F - 46.0 °F 86% 29.83 in 4.0 mi SW 10.4 mph - 0.02 in   Overcast
1:53 PM 50.0 °F - 45.0 °F 83% 29.86 in 4.0 mi WSW 15.0 mph - 0.02 in   Haze
3:53 PM 50.0 °F - 43.0 °F 77% 29.89 in 4.0 mi SW 5.8 mph - 0.00 in Rain Light Rain
4:53 PM 48.9 °F - 42.1 °F 77% 29.90 in 5.0 mi SSW 6.9 mph - 0.00 in   Haze
5:53 PM 48.0 °F - 41.0 °F 77% 29.91 in 6.0 mi South 4.6 mph - N/A   Haze
6:53 PM 46.0 °F 44.8 °F 42.1 °F 86% 29.91 in 6.0 mi SE 3.5 mph - N/A   Overcast
7:53 PM 45.0 °F 43.5 °F 41.0 °F 86% 29.91 in 6.0 mi SE 3.5 mph - N/A   Mostly Cloudy
8:41 PM 45.0 °F - 41.0 °F 86% 29.92 in 6.0 mi Calm Calm - N/A   Overcast
8:53 PM 44.1 °F 42.5 °F 39.9 °F 85% 29.92 in 6.0 mi East 3.5 mph - 0.00 in Rain Light Rain
9:29 PM 45.0 °F 43.5 °F 39.9 °F 82% 29.92 in 7.0 mi ESE 3.5 mph - 0.00 in   Overcast
9:53 PM 44.1 °F 42.5 °F 39.9 °F 85% 29.92 in 7.0 mi ESE 3.5 mph - 0.00 in   Mostly Cloudy
10:28 PM 44.1 °F 41.5 °F 39.9 °F 85% 29.91 in 7.0 mi East 4.6 mph - N/A   Overcast
10:53 PM 45.0 °F - 39.9 °F 82% 29.92 in 7.0 mi Calm Calm - N/A   Overcast
11:53 PM 45.0 °F - 39.9 °F 82% 29.92 in 7.0 mi Calm Calm - N/A   Overcast